GW5555 Weather Reports


time (UTC)temp
C
wind
direction
speed
KPH
gust
KPH
rain 1hr
cm
rain 24hr
cm
rain mn
cm
humidity
%
barometer
mb
20260906232611 16 46 12.9 16.1 0.00 1.91 1.91 79 1011.7
20260906232106 16 48 12.9 14.5 0.00 1.91 1.91 80 1011.9
20260906231606 16 24 14.5 16.1 0.00 1.91 1.91 80 1012.1
20260906231101 16 33 12.9 14.5 0.00 1.91 1.91 78 1012.1
20260906230600 16 25 12.9 14.5 0.00 1.91 1.91 77 1012.3
20260906230055 16 39 11.3 12.9 0.00 1.91 1.91 78 1012.0
20260906225554 16 11 11.3 12.9 0.00 1.91 1.91 77 1012.4
20260906225050 16 25 11.3 12.9 0.00 1.91 1.91 78 1012.3
20260906224546 16 21 9.7 11.3 0.00 1.91 1.91 80 1012.7
20260906224042 16 8 6.4 9.7 0.00 1.91 1.91 80 1012.6
20260906223538 15 13 14.5 16.1 0.00 1.91 1.91 81 1012.5
20260906223037 15 3 12.9 16.1 0.00 1.91 1.91 81 1012.7
20260906222536 15 21 11.3 12.9 0.00 1.91 1.91 81 1012.7
20260906222034 15 24 12.9 14.5 0.00 1.91 1.91 81 1012.7
20260906221533 15 345 11.3 12.9 0.00 1.91 1.91 81 1012.4
20260906221029 15 4 8.0 11.3 0.00 1.91 1.91 82 1012.8
20260906220528 15 356 14.5 17.7 0.00 1.91 1.91 81 1012.9
20260906220024 15 358 11.3 14.5 0.00 1.91 1.91 81 1012.8
20260906215523 15 2 11.3 12.9 0.00 1.91 1.91 81 1012.7
20260906215021 15 0 11.3 12.9 0.00 1.91 1.91 81 1012.7
20260906214520 15 23 8.0 9.7 0.00 1.91 1.91 81 1012.6
20260906214015 15 330 9.7 12.9 0.00 1.91 1.91 80 1012.5
20260906213514 15 13 12.9 14.5 0.00 1.91 1.91 80 1012.7
20260906213009 15 346 9.7 11.3 0.00 1.91 1.91 81 1012.6
20260906212502 15 341 9.7 11.3 0.00 1.91 1.91 80 1012.6
20260906211958 15 18 8.0 11.3 0.00 1.91 1.91 81 1012.5
20260906211458 15 20 8.0 9.7 0.00 1.91 1.91 81 1012.6
20260906210954 15 17 9.7 12.9 0.00 1.91 1.91 81 1012.4
20260906210449 15 14 9.7 12.9 0.00 1.91 1.91 80 1012.5
20260906205947 15 26 14.5 17.7 0.00 1.91 1.91 80 1012.5
20260906205444 15 18 9.7 12.9 0.00 1.91 1.91 81 1012.4
20260906204940 15 3 17.7 20.9 0.00 1.91 1.91 81 1012.4
20260906204439 15 11 14.5 17.7 0.00 1.91 1.91 82 1012.5
20260906203938 15 4 17.7 17.7 0.00 1.91 1.91 82 1012.3
20260906203434 15 355 8.0 9.7 0.00 1.91 1.91 83 1012.4
20260906202931 14 4 17.7 25.7 0.00 1.91 1.91 82 1012.4
20260906202430 14 13 17.7 22.5 0.00 1.91 1.91 83 1012.5
20260906201925 14 29 14.5 16.1 0.00 1.91 1.91 83 1012.8
20260906201420 14 17 17.7 22.5 0.00 1.91 1.91 81 1012.6
20260906200915 14 5 12.9 16.1 0.00 1.91 1.91 81 1012.5
20260906200406 14 18 19.3 22.5 0.00 1.91 1.91 81 1012.3
20260906195905 14 3 19.3 22.5 0.00 1.91 1.91 81 1012.6
20260906195402 14 28 9.7 12.9 0.00 1.91 1.91 81 1012.6
20260906194857 15 8 6.4 6.4 0.00 1.91 1.91 80 1012.7
20260906194353 15 14 11.3 14.5 0.00 1.91 1.91 80 1012.5
20260906193848 15 28 9.7 14.5 0.00 1.91 1.91 79 1012.8
20260906193343 15 27 17.7 20.9 0.00 1.91 1.91 78 1012.8
20260906192839 16 7 6.4 6.4 0.00 1.91 1.91 78 1012.6
20260906192333 16 358 19.3 24.1 0.00 1.91 1.91 77 1012.7
20260906191832 16 26 14.5 16.1 0.00 1.91 1.91 75 1012.5
20260906191326 16 21 19.3 24.1 0.00 1.91 1.91 77 1012.7
20260906190821 15 16 24.1 27.4 0.00 1.91 1.91 77 1012.5
20260906190315 15 29 17.7 20.9 0.00 1.91 1.91 76 1012.5
20260906185814 15 4 22.5 25.7 0.00 1.91 1.91 76 1012.5
20260906185313 15 355 20.9 25.7 0.00 1.91 1.91 75 1012.6
20260906184808 16 26 17.7 20.9 0.00 1.91 1.91 76 1012.6
20260906184303 16 344 25.7 30.6 0.00 1.91 1.91 73 1012.3
20260906183759 15 26 14.5 16.1 0.00 1.91 1.91 77 1012.3
20260906183255 15 18 17.7 22.5 0.00 1.91 1.91 78 1012.4
20260906182755 15 22 20.9 24.1 0.00 1.91 1.91 77 1012.5
20260906182251 15 31 22.5 29.0 0.00 1.91 1.91 77 1012.5
20260906181746 13 27 19.3 25.7 0.00 1.91 1.91 79 1012.5
20260906181243 13 13 24.1 30.6 0.00 1.91 1.91 79 1012.5
20260906180743 13 20 20.9 24.1 0.00 1.91 1.91 80 1012.8
20260906180238 13 13 20.9 27.4 0.00 1.91 1.91 82 1013.0
20260906175735 13 18 17.7 22.5 0.00 1.91 1.91 84 1013.2
20260906175231 12 30 25.7 27.4 0.00 1.91 1.91 83 1013.5
20260906174730 12 34 14.5 17.7 0.00 1.91 1.91 87 1013.5
20260906174229 12 9 24.1 29.0 0.18 1.91 1.91 86 1013.4
20260906173725 12 39 16.1 22.5 0.18 1.91 1.91 88 1013.7
20260906173220 12 28 25.7 30.6 0.00 1.88 1.88 87 1013.6
20260906172719 12 24 17.7 20.9 0.00 1.88 1.88 90 1013.6
20260906172215 12 13 14.5 16.1 0.00 1.88 1.88 93 1013.5
20260906171709 11 26 19.3 25.7 0.00 1.88 1.88 93 1013.3
20260906171205 11 35 24.1 33.8 0.13 1.88 1.88 92 1013.5
20260906170701 11 12 16.1 20.9 0.13 1.88 1.88 92 1014.4
20260906170201 11 345 19.3 22.5 0.00 1.85 1.85 92 1014.7
20260906165657 11 25 11.3 12.9 0.00 1.85 1.85 91 1014.7
20260906165152 11 354 16.1 20.9 0.00 1.85 1.85 90 1015.1
20260906164651 12 338 9.7 12.9 0.00 1.85 1.85 90 1014.8
20260906164147 12 301 14.5 17.7 0.00 1.85 1.85 89 1014.7
20260906163642 12 14 12.9 14.5 0.00 1.85 1.85 89 1014.7
20260906163138 12 14 16.1 22.5 0.00 1.85 1.85 88 1014.5
20260906162635 12 18 16.1 20.9 0.00 1.85 1.85 89 1014.4
20260906162135 12 27 9.7 11.3 0.00 1.85 1.85 91 1014.5
20260906161630 12 42 11.3 14.5 0.00 1.85 1.85 92 1014.3
20260906161129 12 14 16.1 22.5 0.00 1.85 1.85 92 1014.1
20260906160628 11 39 22.5 30.6 0.00 1.85 1.85 93 1014.1
20260906160127 11 25 16.1 17.7 0.00 1.85 1.85 93 1014.2
20260906155624 11 24 19.3 27.4 0.00 1.85 1.85 93 1014.3
20260906155121 11 47 22.5 29.0 0.00 1.85 1.85 92 1014.6
20260906154616 11 14 17.7 24.1 0.00 1.85 1.85 92 1014.7
20260906154115 11 18 17.7 17.7 0.00 1.85 1.85 91 1014.7
20260906153614 11 24 16.1 17.7 0.00 1.85 1.85 92 1014.7
20260906153109 11 11 12.9 14.5 0.00 1.85 1.85 91 1014.8
20260906152608 11 31 14.5 16.1 0.18 1.85 1.85 92 1014.8
20260906152103 11 33 16.1 20.9 0.18 1.85 1.85 92 1014.7
20260906151558 11 26 19.3 24.1 0.00 1.83 1.83 93 1014.8
20260906151054 11 26 9.7 12.9 0.00 1.83 1.83 94 1014.7
20260906150549 11 14 12.9 14.5 0.00 1.83 1.83 95 1015.3
20260906150044 10 9 8.0 9.7 0.00 1.83 1.83 95 1015.4
20260906145542 10 292 11.3 17.7 0.89 1.83 1.83 95 1015.4
20260906145038 10 317 11.3 16.1 1.80 1.83 1.83 95 1015.3
20260906144532 10 20 8.0 9.7 1.85 1.73 1.73 95 1015.5
20260906144028 10 314 9.7 11.3 1.19 1.55 1.55 95 1015.8
20260906143523 10 340 12.9 17.7 0.71 1.42 1.42 95 1015.6
20260906143019 10 321 12.9 16.1 1.37 1.32 1.32 95 1015.8
20260906142518 10 297 14.5 17.7 1.85 1.30 1.30 95 1016.1
20260906142014 11 296 22.5 25.7 1.50 1.14 1.14 94 1016.2
20260906141514 11 289 17.7 24.1 0.89 1.02 1.02 94 1015.4
20260906141009 12 281 33.8 38.6 0.13 0.89 0.89 91 1015.2
20260906140509 12 208 8.0 11.3 0.00 0.86 0.86 90 1015.2
20260906140008 13 295 4.8 4.8 0.00 0.86 0.86 87 1015.3
20260906135505 15 90 1.6 1.6 0.00 0.86 0.86 83 1014.8
20260906135001 13 72 3.2 4.8 0.00 0.86 0.86 85 1014.5
20260906134456 13 33 4.8 4.8 0.00 0.86 0.86 85 1014.3
20260906133950 13 41 4.8 6.4 0.00 0.86 0.86 87 1014.4
20260906133446 13 32 11.3 12.9 0.00 0.86 0.86 88 1014.4
20260906132941 12 15 16.1 17.7 0.00 0.86 0.86 90 1014.5
20260906132436 12 5 14.5 17.7 0.00 0.86 0.86 90 1014.4
20260906131932 12 27 14.5 20.9 0.00 0.86 0.86 90 1014.1
20260906131427 12 29 16.1 16.1 0.00 0.86 0.86 91 1014.2
20260906130923 12 14 17.7 25.7 0.00 0.86 0.86 90 1014.5
20260906130423 12 22 20.9 24.1 0.00 0.86 0.86 90 1014.1
20260906125922 12 16 14.5 20.9 0.00 0.86 0.86 90 1014.4
20260906125420 13 22 9.7 12.9 0.00 0.86 0.86 87 1014.4
20260906124919 13 30 14.5 16.1 0.00 0.86 0.86 87 1014.6
20260906124416 13 43 11.3 14.5 0.00 0.86 0.86 86 1014.8
20260906123910 13 34 12.9 16.1 0.00 0.86 0.86 86 1014.6
20260906123410 13 6 17.7 20.9 0.00 0.86 0.86 84 1014.7
20260906122909 13 30 12.9 17.7 0.00 0.86 0.86 86 1014.7
20260906122404 13 45 14.5 16.1 0.00 0.86 0.86 86 1014.7
20260906121901 13 12 9.7 16.1 0.00 0.86 0.86 87 1014.7
20260906121357 12 25 16.1 22.5 0.00 0.86 0.86 87 1014.9
20260906120853 13 90 6.4 9.7 0.00 0.86 0.86 84 1015.5
20260906120348 12 329 19.3 29.0 0.00 0.86 0.86 87 1015.3
20260906115844 13 286 17.7 24.1 0.00 0.86 0.86 86 1015.3
20260906115339 13 280 8.0 9.7 0.00 0.86 0.86 82 1015.1
20260906114839 14 15 6.4 11.3 0.00 0.86 0.86 77 1014.6
20260906114334 14 50 12.9 14.5 0.00 0.86 0.86 74 1014.7
20260906113829 13 43 9.7 11.3 0.00 0.86 0.86 80 1014.6
20260906113328 13 21 8.0 12.9 0.00 0.86 0.86 82 1015.1
20260906112824 13 324 11.3 12.9 0.00 0.86 0.86 82 1014.8
20260906112320 13 15 6.4 11.3 0.00 0.86 0.86 80 1014.6
20260906111820 13 28 4.8 6.4 0.00 0.86 0.86 81 1014.8
20260906111319 13 30 12.9 14.5 0.00 0.86 0.86 80 1014.6
20260906110814 13 49 11.3 14.5 0.00 0.86 0.86 81 1014.6
20260906110311 12 28 19.3 24.1 0.00 0.86 0.86 82 1014.6
20260906105809 12 19 14.5 17.7 0.00 0.86 0.86 84 1014.4
20260906105306 12 44 16.1 17.7 0.00 0.86 0.86 85 1014.7
20260906104801 12 34 17.7 20.9 0.00 0.86 0.86 85 1014.6
20260906104259 12 58 14.5 16.1 0.00 0.86 0.86 84 1014.6
20260906103757 12 35 22.5 33.8 0.00 0.86 0.86 85 1014.9
20260906103257 12 29 22.5 25.7 0.00 0.86 0.86 88 1015.1
20260906102753 12 35 22.5 27.4 0.00 0.86 0.86 86 1014.9
20260906102251 12 44 24.1 29.0 0.00 0.86 0.86 86 1015.1
20260906101747 12 41 14.5 17.7 0.00 0.86 0.86 86 1015.1
20260906101242 12 37 22.5 24.1 0.00 0.86 0.86 87 1014.6
20260906100737 12 37 17.7 24.1 0.00 0.86 0.86 88 1015.1
20260906100237 12 15 11.3 12.9 0.00 0.86 0.86 89 1015.2
20260906095732 12 6 19.3 22.5 0.00 0.86 0.86 89 1014.9
20260906095227 12 4 17.7 20.9 0.00 0.86 0.86 89 1014.7
20260906094726 12 10 12.9 14.5 0.00 0.86 0.86 89 1015.1
20260906094222 12 17 14.5 16.1 0.00 0.86 0.86 91 1015.1
20260906093718 12 19 17.7 20.9 0.00 0.86 0.86 91 1015.1
20260906093213 12 22 19.3 24.1 0.00 0.86 0.86 91 1015.2
20260906092709 11 13 22.5 25.7 0.00 0.86 0.86 91 1015.3
20260906092208 12 17 14.5 17.7 0.00 0.86 0.86 91 1015.4
20260906091704 12 31 17.7 22.5 0.00 0.86 0.86 89 1015.5
20260906091200 12 2 19.3 20.9 0.36 0.86 0.86 89 1016.0
20260906090656 11 26 19.3 24.1 2.16 0.86 0.86 94 1016.2
20260906090155 11 35 14.5 17.7 2.87 0.81 0.81 95 1017.0
20260906085655 11 352 6.4 9.7 2.16 0.64 0.64 95 1017.0
20260906085154 11 275 6.4 6.4 0.61 0.36 0.36 96 1017.1
20260906084649 11 281 8.0 12.9 0.30 0.28 0.28 96 1017.0
20260906084148 11 305 14.5 20.9 0.30 0.25 0.25 96 1016.6
20260906083643 11 8 20.9 30.6 0.13 0.23 0.23 96 1016.1
20260906083139 11 6 22.5 27.4 0.00 0.20 0.20 96 1016.3
20260906082634 11 358 17.7 20.9 0.00 0.20 0.20 96 1016.1
20260906082129 10 3 19.3 24.1 0.00 0.20 0.20 96 1015.7
20260906081625 11 15 30.6 37.0 0.00 0.20 0.20 96 1015.4
20260906081120 11 26 22.5 29.0 0.18 0.20 0.20 95 1015.2
20260906080617 11 17 29.0 33.8 0.18 0.20 0.20 95 1015.2
20260906080113 11 20 20.9 24.1 0.00 0.18 0.18 95 1015.4
20260906075606 11 16 25.7 41.8 0.00 0.18 0.18 95 1015.5
20260906075101 11 8 22.5 27.4 0.00 0.18 0.18 95 1016.0
20260906074556 11 357 24.1 27.4 0.00 0.18 0.18 95 1016.2
20260906074055 11 340 14.5 17.7 0.00 0.18 0.18 94 1016.2
20260906073550 11 25 24.1 30.6 0.00 0.18 0.18 94 1016.1
20260906073046 11 19 25.7 29.0 0.00 0.18 0.18 94 1015.7
20260906072540 11 15 20.9 30.6 0.00 0.18 0.18 94 1015.5
20260906072037 11 18 24.1 29.0 0.00 0.18 0.18 94 1015.8
20260906071533 11 18 19.3 24.1 0.00 0.18 0.18 94 1015.8
20260906071028 11 9 24.1 29.0 0.00 0.18 0.18 94 1016.0
20260906070524 11 13 25.7 29.0 0.00 0.18 0.18 93 1016.4
20260906070020 11 8 24.1 30.6 0.18 0.18 0.18 93 1016.6
20260906065519 12 5 19.3 22.5 0.18 0.18 0.18 93 1016.6
20260906065015 12 9 27.4 30.6 0.00 0.15 0.15 93 1017.0
20260906064511 12 14 19.3 25.7 0.00 0.15 0.15 93 1016.5
20260906064005 12 19 22.5 30.6 0.00 0.15 0.15 93 1016.6
20260906063501 11 2 20.9 27.4 0.13 0.15 0.15 93 1016.7
20260906062956 11 8 22.5 27.4 0.43 0.15 0.15 94 1017.1
20260906062451 11 12 24.1 29.0 0.30 0.13 0.13 94 1017.5
20260906061946 11 16 22.5 25.7 0.00 0.08 0.08 94 1017.9
20260906061441 11 2 19.3 24.1 0.18 0.08 0.08 94 1017.6
20260906060935 11 1 27.4 30.6 0.48 0.08 0.08 94 1017.3
20260906060432 11 25 19.3 24.1 0.30 0.05 0.05 93 1017.1
20260906055929 11 2 20.9 29.0 0.00 0.61 0.61 92 1017.2
20260906055424 11 323 17.7 20.9 0.00 0.61 0.61 92 1017.0
20260906054920 11 2 24.1 29.0 0.00 0.61 0.61 92 1016.6
20260906054414 11 7 25.7 33.8 0.00 0.61 0.61 91 1016.9
20260906053910 11 352 17.7 20.9 0.00 0.61 0.61 91 1016.9
20260906053407 11 7 24.1 27.4 0.00 0.61 0.61 91 1017.0
20260906052902 11 345 20.9 25.7 0.00 0.61 0.61 91 1017.1
20260906052358 11 7 19.3 24.1 0.00 0.61 0.61 91 1016.7
20260906051855 11 18 17.7 17.7 0.00 0.61 0.61 91 1017.0
20260906051354 11 3 17.7 22.5 0.00 0.61 0.61 92 1016.6
20260906050850 11 20 33.8 40.2 0.13 0.61 0.61 91 1016.3
20260906050344 11 344 24.1 30.6 0.43 0.61 0.61 92 1016.7
20260906045844 12 358 24.1 29.0 0.30 0.58 0.58 90 1017.1
20260906045338 12 4 19.3 24.1 0.00 0.53 0.53 87 1017.7
20260906044835 12 351 19.3 24.1 0.00 0.53 0.53 86 1017.6
20260906044334 12 6 27.4 33.8 0.00 0.53 0.53 85 1016.7
20260906043830 12 9 22.5 27.4 0.00 0.53 0.53 86 1016.3
20260906043326 12 27 22.5 25.7 0.00 0.53 0.53 86 1016.3
20260906042826 12 26 24.1 35.4 0.00 0.53 0.53 86 1015.7
20260906042325 12 36 22.5 29.0 0.00 0.53 0.53 86 1016.0
20260906041821 12 31 25.7 33.8 0.00 0.53 0.53 86 1016.2
20260906041316 12 24 27.4 30.6 0.00 0.53 0.53 85 1016.0
20260906040811 12 62 19.3 22.5 0.00 0.53 0.53 87 1016.2
20260906040306 12 7 25.7 29.0 0.00 0.53 0.53 87 1016.3
20260906035801 11 1 19.3 24.1 0.36 0.53 0.53 88 1016.2
20260906035257 11 5 24.1 33.8 0.66 0.53 0.53 89 1015.8
20260906034758 11 14 29.0 38.6 0.71 0.48 0.48 89 1015.2
20260906034257 11 20 17.7 20.9 0.71 0.43 0.43 88 1017.7
20260906033753 11 22 14.5 22.5 0.79 0.36 0.36 88 1018.0
20260906033253 12 5 16.1 20.9 0.61 0.30 0.30 87 1017.5
20260906032750 12 9 20.9 29.0 0.30 0.23 0.23 83 1017.0
20260906032249 12 358 24.1 30.6 0.18 0.20 0.20 82 1016.9
20260906031744 13 347 24.1 27.4 0.00 0.18 0.18 78 1016.4